RH
8 9 8 8 8 10 10 11 14 11 12 15 13 13 13 12 18 29 30 28 28 23 22 25 25 29 33 39 43 45 48 45 51 50 53 62 61 63 59 58 62 61 62 64 66 68 67 68 70 69 67 65 62 57 54 50 49 51 50 47 44 45 40 38 42 42 43 44 40 39 41 39 36 32 28 26 26 32 39 40 40 43 48 48 45 44 44 43 43 42 42 43 44 46 47 49 50
9 9 8 9 8 13 13 11 16 12 12 14 11 14 16 17 28 36 36 36 33 25 24 30 31 34 35 37 39 39 44 45 50 53 56 60 60 63 58 62 66 62 65 68 69 67 67 70 69 68 66 65 62 58 54 51 51 51 50 46 44 44 42 41 45 46 45 43 42 43 44 42 37 32 29 29 32 39 42 41 41 46 49 47 45 45 45 44 44 42 41 41 43 45 49 51 52
9 9 9 10 10 14 13 11 15 12 13 13 13 18 19 27 37 36 33 34 31 27 32 37 37 38 36 37 37 37 44 48 51 52 55 59 60 63 59 62 65 64 67 66 66 64 65 66 64 65 64 62 60 59 57 55 55 53 51 46 45 46 43 47 50 48 49 47 45 44 43 42 37 33 35 36 39 43 43 43 45 48 48 46 46 47 46 45 44 40 39 39 40 42 46 50 51
9 9 10 13 13 13 13 15 17 13 15 14 16 21 25 34 36 30 30 36 37 37 39 40 39 38 37 37 36 39 47 50 54 56 59 63 62 63 62 62 66 67 67 67 69 67 66 65 63 62 62 63 63 63 62 62 60 56 54 48 48 51 50 59 62 52 50 50 46 42 41 40 37 36 41 41 42 44 43 44 47 49 47 48 49 49 48 47 44 40 41 41 41 42 46 48 49
9 10 10 15 16 15 15 19 21 24 26 21 23 27 32 37 32 29 32 38 42 42 42 40 40 40 42 45 43 46 54 56 59 62 65 68 64 65 65 64 66 66 66 69 71 69 65 65 65 64 64 66 66 68 70 67 64 60 59 54 52 56 58 66 70 61 49 49 48 44 42 40 37 39 43 42 42 43 42 43 48 49 48 51 51 50 49 48 46 42 44 47 47 48 51 51 50
10 12 11 15 18 16 19 23 26 31 35 30 30 33 34 34 32 32 35 40 43 44 43 42 44 44 48 54 52 55 60 62 65 66 68 69 66 67 67 66 66 65 68 69 69 68 64 65 67 66 67 68 69 76 78 72 70 68 65 62 58 58 63 67 72 68 51 45 49 48 44 41 39 40 44 44 44 44 43 45 50 50 50 52 51 51 50 49 48 44 46 51 52 53 54 54 54
11 14 14 17 17 20 27 32 31 29 36 35 33 34 33 33 34 36 39 45 46 47 45 44 47 46 50 54 56 61 62 65 68 69 70 69 68 68 66 66 64 65 71 72 71 69 64 64 65 67 70 71 73 81 82 78 77 75 70 68 63 59 62 68 71 70 55 43 44 47 46 44 41 40 46 48 49 49 48 52 53 51 51 52 52 52 51 50 49 47 49 52 54 54 54 55 55
14 17 19 21 19 25 32 34 35 32 37 38 35 36 35 36 38 41 44 47 46 44 44 45 45 46 53 54 58 66 66 67 68 68 68 66 68 67 66 67 66 64 68 72 73 71 68 67 67 69 72 73 75 78 79 80 81 80 76 70 65 62 63 67 69 67 56 45 40 43 45 44 43 43 50 54 53 53 54 58 58 55 53 53 53 53 52 50 50 49 50 52 53 53 55 55 55
17 20 21 23 23 29 34 36 41 39 39 39 38 38 38 38 40 43 43 43 43 43 45 46 45 48 57 59 63 68 69 70 68 67 67 65 67 67 66 67 67 67 67 69 71 73 73 73 72 73 74 75 76 76 76 79 80 81 81 75 69 66 66 66 66 62 52 45 42 43 46 45 46 48 52 60 64 63 62 62 62 58 55 55 56 56 55 52 51 51 52 53 54 54 55 55 54
20 22 23 25 27 33 39 40 43 45 43 41 41 40 40 39 39 43 43 42 45 47 49 49 48 50 56 62 65 69 71 71 67 67 67 66 66 65 64 64 67 70 70 71 73 75 75 75 76 76 75 75 75 76 78 79 80 81 80 78 76 72 72 67 60 57 50 48 49 49 51 49 51 51 53 65 73 73 70 68 68 63 59 57 57 58 57 53 51 51 52 53 54 54 55 55 52
23 23 24 28 32 37 43 45 48 49 46 44 44 43 42 41 41 43 44 45 46 49 50 51 51 51 56 64 69 72 72 69 67 66 65 65 65 64 62 62 65 68 70 74 76 76 74 74 77 75 71 70 72 76 80 80 79 80 79 78 78 76 72 66 59 54 48 49 54 53 54 53 55 55 57 67 74 75 72 70 72 69 64 59 57 56 56 53 51 52 53 54 54 55 55 54 50
23 23 25 32 36 38 44 48 51 51 48 49 48 45 43 43 44 45 45 45 45 47 48 50 51 52 58 65 71 73 71 69 67 67 66 66 66 66 64 63 64 67 70 72 72 71 70 72 72 68 64 66 70 73 77 79 78 79 80 79 78 77 70 62 59 55 47 47 50 52 54 54 57 58 60 67 73 73 70 71 73 72 70 66 60 56 55 52 50 51 52 53 54 55 54 52 47
22 23 30 37 39 38 45 52 53 51 52 52 48 44 42 42 44 45 45 44 43 44 45 47 49 54 59 65 70 71 70 69 69 69 67 66 66 66 63 61 63 65 65 64 61 62 62 62 61 57 57 61 67 72 75 77 79 79 79 79 79 80 74 64 60 58 55 53 52 50 50 52 56 58 59 64 70 71 72 73 73 74 73 69 65 60 57 53 50 50 51 52 53 53 53 49 45
22 24 32 37 39 39 46 54 53 52 53 50 46 44 41 42 42 43 44 43 41 42 44 46 47 54 61 64 67 68 69 68 67 66 64 66 66 63 61 60 62 61 60 58 54 54 54 53 52 52 55 59 63 68 73 74 78 80 78 79 79 79 78 72 67 63 65 66 62 57 55 54 55 55 57 62 67 70 72 72 72 73 72 69 67 66 64 58 53 50 50 52 51 52 51 46 44
23 28 33 35 40 44 49 53 50 50 51 47 44 42 40 40 40 41 43 41 41 43 44 45 47 54 59 60 64 67 68 66 65 65 66 68 66 62 62 60 58 58 57 55 53 53 53 53 52 51 55 59 62 63 64 68 74 78 79 79 78 78 78 77 76 70 70 72 71 69 70 66 59 55 57 61 66 68 70 72 73 71 69 68 67 68 68 62 57 53 51 53 52 51 48 44 44
26 32 37 37 42 49 51 48 46 47 47 44 41 40 39 39 40 41 41 40 42 43 43 44 46 52 54 57 64 66 65 65 67 69 70 69 66 63 61 58 57 56 55 53 53 52 51 53 54 54 57 59 60 58 54 60 70 74 78 78 76 77 75 75 76 72 71 74 74 76 80 79 69 61 58 61 66 67 69 71 72 71 69 70 67 65 67 63 60 57 54 55 52 48 45 43 44
28 34 40 42 43 50 52 48 48 46 42 41 39 39 38 38 41 41 41 40 42 43 43 44 44 48 52 58 66 66 65 67 69 69 69 67 64 61 58 57 56 53 49 49 48 46 44 45 46 45 46 46 46 48 47 52 63 70 75 79 78 76 72 71 74 72 68 70 74 76 80 80 75 69 65 65 67 67 69 70 69 70 69 67 65 63 63 62 61 59 55 52 48 45 44 45 46
28 36 43 45 46 50 52 48 48 45 40 39 38 39 38 39 40 40 40 39 41 42 43 45 46 50 57 61 64 66 65 67 68 67 64 60 57 55 54 52 49 47 44 42 39 35 35 35 35 32 32 32 32 38 40 44 54 62 68 74 77 77 73 70 70 68 63 62 68 70 71 74 74 74 72 71 70 68 69 70 70 71 69 65 64 63 62 62 60 58 54 49 46 44 46 52 53
28 35 43 47 47 49 49 45 46 44 39 37 37 38 38 38 38 39 40 38 40 41 42 47 50 55 62 61 62 64 64 66 67 65 61 55 52 50 48 45 42 42 40 36 30 28 29 29 29 28 28 27 26 30 32 35 44 52 58 64 69 72 72 68 65 63 59 56 60 64 65 68 70 71 70 68 66 66 67 69 69 68 67 64 64 65 65 64 61 58 55 49 46 47 52 60 61
27 33 43 47 47 48 46 43 42 40 36 34 35 36 37 38 37 38 40 39 41 41 42 47 49 54 60 62 63 63 63 66 66 64 60 53 49 45 44 43 40 39 35 30 27 26 27 27 27 27 26 25 23 24 24 25 30 39 46 53 61 64 66 66 63 61 60 57 57 61 65 65 65 65 65 63 62 62 62 63 63 62 62 61 62 65 68 66 63 60 55 51 51 55 59 63 62
27 32 42 44 43 45 42 39 37 36 36 35 35 36 35 35 36 38 40 41 43 41 43 45 46 51 55 60 64 62 63 65 64 61 55 48 42 40 39 38 36 34 31 28 27 27 27 27 27 27 27 26 24 23 22 20 22 29 32 39 50 57 61 64 64 62 61 59 56 59 65 64 64 64 64 64 64 65 62 59 58 57 57 57 58 62 68 67 66 65 58 56 60 64 65 64 64
29 31 38 41 40 41 39 38 36 35 35 35 36 35 33 32 35 39 42 45 45 42 44 46 46 50 51 54 58 60 61 61 59 54 46 40 37 37 37 36 33 30 29 28 28 29 30 30 30 30 30 29 27 25 24 22 20 22 22 26 36 45 54 61 64 64 61 60 57 57 62 64 62 62 64 65 66 66 63 61 60 58 54 54 54 55 65 68 67 69 65 63 66 67 65 62 62
33 34 37 40 41 38 36 37 36 36 36 36 36 32 30 32 35 38 41 43 42 42 44 45 46 50 50 49 52 54 55 54 53 48 40 36 35 35 35 35 33 31 30 31 33 34 35 34 33 33 32 31 29 27 26 25 22 21 19 19 24 30 41 53 62 64 62 61 60 56 57 61 61 60 61 62 62 62 62 61 60 59 55 54 52 51 61 66 64 66 67 66 65 65 66 62 60
34 37 38 40 40 36 34 36 36 36 37 36 33 30 29 31 34 37 39 40 40 42 44 44 46 49 49 49 50 50 51 50 50 47 40 35 33 32 31 32 33 33 34 36 37 38 37 36 35 33 33 32 30 28 27 26 25 24 21 18 18 21 29 41 52 60 61 60 60 58 55 56 58 58 57 58 58 59 59 58 56 57 56 53 51 51 55 59 59 60 62 63 63 64 66 64 63
35 36 38 37 38 35 34 35 35 35 35 34 31 28 29 31 34 36 38 43 44 43 44 45 46 48 48 49 50 51 52 52 52 50 45 38 34 34 34 36 37 38 40 42 42 41 40 39 38 36 34 33 31 29 27 26 26 25 24 22 18 18 22 28 37 51 58 58 58 58 56 53 54 56 56 56 56 56 56 55 52 52 54 52 50 49 48 53 58 57 56 59 61 63 65 64 64
35 34 35 35 35 34 34 35 35 35 33 33 31 28 30 33 34 36 38 44 46 45 44 45 47 48 49 50 51 53 54 55 55 52 49 44 40 40 41 42 43 45 46 46 46 45 44 43 43 42 38 35 32 30 28 27 26 25 25 25 21 19 19 21 27 36 46 57 59 57 57 54 52 55 55 55 55 55 54 51 49 50 54 53 52 48 44 50 58 56 55 58 60 61 64 65 65
32 31 32 32 33 33 34 36 35 34 32 32 32 31 33 35 37 38 39 41 45 46 45 46 50 53 54 53 52 54 53 53 53 52 50 48 45 44 45 47 48 49 49 49 48 46 46 47 48 47 43 38 34 32 31 28 26 25 25 25 24 22 18 20 26 28 30 43 51 51 54 54 51 52 54 54 53 54 53 51 51 52 53 54 53 48 45 49 56 58 55 58 61 62 67 68 66
29 29 30 31 33 34 34 35 35 33 32 32 32 33 35 36 40 40 39 41 43 45 45 46 50 53 55 53 52 52 52 52 52 52 51 50 48 46 47 49 50 50 50 49 47 46 48 51 51 49 48 43 37 35 34 30 26 25 24 25 25 24 22 20 24 28 28 31 37 42 46 48 49 49 49 50 51 51 50 50 51 50 50 54 53 50 47 46 52 57 54 54 59 62 68 70 67
31 32 33 33 33 33 33 33 33 32 33 32 32 37 40 39 41 42 42 44 44 43 44 46 48 49 51 52 51 51 52 52 52 53 51 47 46 46 48 50 50 50 49 48 48 48 50 53 53 52 50 47 42 38 37 34 28 24 24 25 25 28 33 29 27 31 32 29 29 34 39 42 45 45 44 45 44 45 45 46 46 45 47 51 51 48 46 43 45 54 55 54 57 63 69 68 65
37 37 35 36 38 36 33 33 32 32 35 34 35 44 48 43 42 44 48 50 48 46 46 47 50 50 50 51 50 51 52 52 52 53 51 47 46 47 49 50 51 51 50 51 52 52 53 53 54 53 51 49 46 42 41 40 35 28 24 24 28 36 43 41 36 35 34 33 30 30 33 36 39 41 44 44 42 41 42 43 44 44 45 46 45 44 45 44 43 48 55 57 58 64 70 67 63
37 38 39 38 44 42 33 32 33 35 37 34 35 44 48 47 46 47 52 54 52 51 49 50 52 51 51 51 50 51 52 52 52 53 53 52 51 50 51 53 54 53 53 55 56 55 55 56 55 55 53 50 48 45 43 43 41 37 30 29 36 41 45 45 42 39 37 37 34 31 30 32 35 37 40 43 42 41 41 41 42 44 45 44 43 43 44 47 45 44 51 56 58 63 68 66 63
34 38 44 41 46 46 34 32 34 37 37 34 36 42 47 51 51 51 53 54 54 53 53 53 53 52 52 52 52 54 54 53 54 54 53 54 52 50 51 53 54 53 54 56 56 55 56 56 56 56 55 52 49 46 44 44 43 41 37 38 43 44 45 46 44 41 39 37 37 35 31 30 33 34 36 39 40 42 42 40 40 42 44 44 42 40 43 50 52 49 48 50 56 63 66 66 65
33 37 42 39 45 45 35 34 33 35 36 35 38 42 48 52 53 56 57 56 55 55 56 56 56 56 55 54 55 56 56 54 53 51 50 51 50 48 50 51 52 51 51 53 54 54 55 54 54 55 56 53 51 47 46 45 43 40 38 42 48 47 45 47 47 44 40 38 37 36 33 31 31 32 33 36 38 40 41 41 41 41 42 43 43 41 42 49 56 57 52 47 52 61 65 67 69
35 36 38 38 42 42 39 38 33 34 37 39 39 41 49 53 53 58 61 59 59 58 59 59 59 59 57 55 55 55 54 53 52 50 50 51 50 49 50 50 50 49 50 51 52 53 53 52 52 52 52 51 49 47 46 46 44 40 37 40 47 48 45 47 48 45 41 39 37 35 33 31 32 32 31 34 36 36 39 43 44 41 41 42 44 45 43 47 54 60 60 54 53 58 63 67 70
33 35 36 38 40 41 44 42 35 36 39 42 42 41 47 53 54 58 61 61 60 60 60 60 59 58 56 55 55 55 53 52 53 53 51 51 50 48 48 48 49 51 52 53 53 53 53 52 51 50 47 45 44 44 45 46 46 43 39 40 44 46 45 46 47 46 42 39 37 36 34 32 33 33 31 33 34 34 36 42 44 41 41 40 40 43 44 46 51 57 63 62 57 59 62 64 67
29 31 32 36 39 41 46 46 40 40 43 44 45 45 48 53 56 58 60 59 57 58 58 58 57 57 55 54 54 54 53 52 53 54 53 54 53 49 50 51 51 53 54 55 56 55 53 51 49 47 45 43 42 42 44 45 46 44 42 41 41 43 45 45 46 45 43 40 37 36 35 33 33 32 31 32 33 34 33 37 42 42 42 41 39 42 44 47 52 55 60 63 62 62 64 63 62
29 32 34 36 38 41 45 47 44 44 48 49 48 50 53 55 57 58 59 58 57 56 56 54 52 52 53 53 53 55 54 53 54 55 56 58 57 53 53 53 53 55 56 58 59 56 53 50 48 46 46 45 44 44 43 43 45 44 43 44 43 43 44 44 45 45 44 41 38 37 36 34 33 33 33 31 31 34 33 33 36 38 39 41 41 43 44 46 52 55 58 63 65 66 66 65 60
32 34 36 37 39 43 46 47 47 48 52 54 54 55 57 56 57 59 59 58 58 56 55 53 50 50 53 55 54 54 54 54 57 60 60 60 59 57 57 57 57 59 61 61 59 55 52 50 47 47 47 46 45 43 40 40 41 40 42 46 46 44 43 44 44 44 43 41 39 37 37 35 34 34 35 33 31 31 34 34 34 33 34 37 39 42 43 44 49 55 58 61 65 68 69 67 63
33 34 37 40 42 45 47 47 48 51 54 56 56 56 58 57 56 58 57 57 58 57 56 55 53 52 55 57 56 54 54 58 62 65 64 62 60 60 60 61 61 61 62 61 57 53 51 49 48 49 48 45 43 41 38 36 35 34 38 44 45 43 42 42 43 44 41 40 39 37 36 36 34 34 34 34 33 31 31 32 34 33 32 34 37 40 41 40 44 52 55 59 63 66 69 71 67
34 36 41 46 46 46 48 48 46 49 52 53 53 52 53 53 53 55 54 55 57 58 58 57 55 55 55 57 57 56 57 62 66 68 68 66 64 64 63 61 60 61 62 59 54 51 50 50 50 49 47 44 41 38 35 33 32 31 35 39 40 40 40 38 38 40 40 39 39 38 37 36 35 34 33 33 33 32 30 29 31 33 32 33 34 36 38 37 42 50 51 53 59 62 65 70 70
38 38 42 45 45 44 46 45 42 44 47 48 49 51 52 53 54 56 55 54 55 57 58 58 57 57 57 56 55 57 60 64 69 72 69 66 67 68 65 58 56 60 61 57 53 51 50 50 50 47 44 41 38 34 32 31 31 32 34 37 36 36 37 35 34 36 38 39 39 39 38 35 34 34 33 32 33 32 31 29 29 29 31 33 32 32 34 37 43 45 45 47 52 58 62 65 68
42 39 39 39 38 39 40 40 40 44 49 49 48 52 56 54 54 57 56 54 53 54 55 56 58 58 56 55 57 61 63 65 70 71 67 65 66 68 64 58 56 59 58 54 52 50 50 49 47 44 40 37 34 30 28 29 30 31 34 37 35 34 35 34 34 35 37 39 40 39 37 35 34 33 33 33 33 33 31 30 28 28 29 31 33 32 31 35 40 38 41 48 47 50 59 63 65
43 38 35 34 34 35 36 37 39 44 48 48 43 45 48 47 50 54 52 49 49 50 53 54 56 56 54 55 61 66 67 67 69 69 67 67 68 66 61 54 54 58 57 53 52 50 48 46 44 42 39 35 32 28 26 27 29 30 34 38 36 34 37 37 35 35 37 39 40 38 37 35 34 33 32 32 32 33 32 30 28 27 28 29 31 33 31 32 38 39 42 49 46 45 55 63 66
39 38 34 34 34 34 35 35 36 39 41 42 41 41 41 42 49 51 46 44 45 46 48 50 52 52 52 56 60 64 66 67 67 67 67 66 64 62 57 52 53 57 56 53 52 50 45 42 41 40 37 34 30 27 24 24 27 30 34 38 37 36 39 39 37 37 37 39 40 39 36 34 33 32 32 31 31 31 32 32 29 25 25 27 29 32 35 36 40 41 40 43 47 46 50 57 62
35 35 35 36 35 35 36 35 36 38 38 41 45 44 40 42 48 48 43 42 45 47 47 46 48 49 52 58 61 62 62 62 62 63 63 62 60 58 56 54 55 56 55 56 54 48 43 40 38 36 34 31 28 25 23 23 24 29 35 39 38 38 39 40 39 37 37 38 39 39 37 35 33 32 32 32 31 30 32 33 32 28 24 25 28 32 39 43 43 42 38 39 44 46 49 54 55
30 31 32 33 34 35 37 37 38 39 39 42 47 45 40 42 48 48 46 46 49 52 51 47 49 52 55 59 61 60 59 56 56 56 55 56 58 57 55 54 56 56 56 56 51 44 41 40 37 35 32 30 27 24 23 23 23 26 33 37 38 39 40 41 41 37 36 38 38 38 38 36 34 33 33 32 31 31 31 32 33 33 27 23 25 31 39 43 43 41 38 37 38 43 50 52 50
28 28 29 31 32 32 34 35 35 37 41 43 44 44 41 43 49 50 49 51 51 53 56 54 54 54 54 55 56 56 55 53 51 51 51 52 55 56 54 54 57 58 57 52 44 40 39 38 37 35 33 30 28 25 23 23 23 24 29 34 37 39 40 41 40 37 36 37 38 37 37 37 36 33 32 32 31 32 32 31 32 33 31 26 24 29 34 36 39 40 39 38 38 44 49 46 48
26 27 29 32 35 34 33 36 36 37 45 45 40 42 43 45 52 53 49 49 49 52 56 56 56 55 52 52 52 51 50 49 48 49 49 50 53 54 51 51 54 57 54 46 41 40 38 37 37 35 33 31 28 26 24 23 23 25 27 30 33 35 38 40 39 37 36 36 37 38 37 37 36 34 32 32 32 32 32 31 31 32 33 31 28 28 29 30 35 39 40 40 39 45 47 43 45
28 29 32 34 35 33 33 36 35 35 42 42 36 39 43 45 50 50 47 48 49 51 55 54 53 52 50 48 48 48 49 49 49 49 48 47 50 51 49 48 50 51 49 44 41 40 37 37 38 35 33 31 29 26 24 23 24 24 26 28 30 31 33 37 38 38 37 37 37 37 37 37 37 34 31 32 32 31 31 31 31 31 30 31 30 28 26 27 31 38 41 40 38 44 47 42 42
29 30 32 34 33 33 33 33 32 34 39 38 35 37 40 45 49 48 47 49 50 52 53 52 49 47 47 47 47 48 50 50 48 47 46 46 48 49 48 47 47 46 44 41 40 39 37 38 37 34 33 31 29 27 25 25 25 24 25 27 29 29 30 32 35 36 37 38 38 38 38 38 38 34 31 31 31 31 31 31 31 32 30 29 29 29 28 26 28 35 41 41 39 41 42 39 39
29 27 31 36 35 35 36 35 33 34 36 36 37 37 39 43 46 44 44 47 48 51 51 49 48 49 49 49 48 48 48 47 47 45 44 44 46 48 48 46 44 43 41 41 41 39 38 38 36 33 33 32 30 29 27 26 26 25 25 27 28 29 29 30 31 32 34 36 37 38 39 39 38 37 33 30 29 29 30 31 31 32 31 28 26 28 29 28 28 31 37 39 38 40 40 40 39
31 29 34 38 35 33 35 36 35 34 34 35 36 37 39 41 42 42 45 48 49 49 49 48 49 50 49 49 48 48 47 46 46 45 44 44 44 46 46 45 44 43 43 43 42 40 39 37 33 33 33 33 32 30 28 27 26 25 25 27 29 29 29 30 30 30 31 32 34 35 38 39 39 38 37 34 31 29 29 31 31 30 30 29 26 26 27 29 29 30 35 39 39 40 41 43 42
33 34 36 33 31 32 35 37 38 36 36 36 33 35 39 41 45 47 47 49 49 47 48 49 50 49 48 49 49 49 49 48 47 46 46 45 43 41 41 42 42 42 44 45 43 40 37 34 32 33 34 34 33 31 29 28 27 25 25 27 30 31 30 30 30 31 32 32 32 32 34 35 36 36 36 36 34 32 31 31 31 30 30 30 27 26 26 29 32 33 35 38 40 40 39 41 42
33 36 33 30 32 34 35 36 36 35 35 35 35 36 36 39 47 50 49 51 54 52 51 52 52 51 50 52 52 51 50 50 50 49 47 46 44 39 38 38 39 41 44 45 42 37 34 32 32 34 35 35 34 33 30 28 26 25 25 26 30 30 30 30 31 32 34 34 33 32 31 30 32 34 36 36 35 34 33 32 32 31 32 31 28 26 28 31 35 37 36 37 39 39 39 40 43
30 32 28 31 37 36 36 36 36 37 35 34 35 35 36 40 45 47 48 53 56 57 55 54 56 56 54 55 54 52 53 54 54 52 49 47 45 41 39 38 38 42 43 41 38 35 33 32 33 34 34 35 35 33 31 28 27 26 25 27 29 29 29 30 32 34 36 36 35 34 32 30 31 34 35 35 36 35 34 33 33 32 31 31 28 27 29 33 37 39 39 41 42 43 47 47 45
32 36 34 34 35 34 35 35 34 37 37 34 35 34 37 43 42 41 45 48 50 53 53 53 55 56 55 56 55 54 55 56 54 52 50 49 48 44 42 41 42 44 42 38 35 32 32 33 33 33 34 34 33 32 30 29 29 28 27 29 29 27 28 29 31 35 36 36 36 36 34 33 33 33 32 32 34 36 35 34 33 32 31 29 28 28 30 35 42 45 45 48 49 51 56 56 49
37 40 39 37 35 35 37 37 35 36 37 38 39 36 40 43 39 40 44 44 46 48 50 52 53 54 56 56 56 56 57 57 56 54 52 52 49 45 43 43 45 46 43 38 34 32 31 32 32 32 33 33 33 31 30 31 31 29 28 29 28 27 28 29 31 35 35 34 35 36 37 37 36 34 32 30 31 34 36 36 34 33 33 30 29 29 29 35 48 53 53 54 56 58 59 57 55
35 36 36 36 37 37 39 40 38 38 39 41 40 40 42 41 36 39 41 41 43 46 48 50 51 52 54 54 55 57 58 58 57 55 54 52 49 46 45 46 47 48 46 40 35 31 31 31 31 31 32 32 32 31 31 32 31 29 28 28 27 28 29 30 32 35 34 33 33 35 37 39 38 36 33 31 31 33 35 38 37 35 34 33 32 32 31 37 49 55 55 55 58 63 63 59 58